Regional Weather Roundup
Issued by NWS Upton, NY

Current Version | Previous Version | Text Only | Print | Product List | Glossary Off
Versions: 1 2 3 4 5 6 7 8 9 10 11 12 13 14 15 16 17 18 19 20 21 22 23 24 25 26 27

000
ASUS41 KOKX 261908
RWROKX

REGIONAL WEATHER ROUNDUP
NATIONAL WEATHER SERVICE NEW YORK NY
200 PM EST SUN FEB 26 2017

NOTE: "FAIR" INDICATES FEW OR NO CLOUDS BELOW 12,000 FEET WITH NO
SIGNIFICANT WEATHER AND/OR OBSTRUCTIONS TO VISIBILITY.

NYZ071-072-176-178-NJZ106-104-262000-
NEW YORK CITY METRO AREA

CITY           SKY/WX    TMP DP  RH WIND       PRES   REMARKS
Central Park   PTSUNNY   41  14  33 VRB6      30.04R
Wall St Helipt NOT AVBL
LaGuardia APRT MOSUNNY   43  16  33 W13       30.02R
Kennedy INTL   MOSUNNY   44  16  32 NW17G28   30.03R
Breezy Point     N/A     39 N/A N/A NW10G20     N/A  WCI  32
Newark/Liberty MOSUNNY   44  16  32 W10G26    30.04R
Teterboro      PTSUNNY   43  18  36 W17G24    30.02S
$$

NYZ177-179-078>081-262000-
LONG ISLAND NEW YORK

CITY           SKY/WX    TMP DP  RH WIND       PRES   REMARKS
Jones Beach      N/A     39 N/A N/A NW17G24     N/A  WCI  30
Matinecock PT    N/A     41 N/A N/A W17         N/A
Farmingdale    MOSUNNY   42  16  34 NW12G20   30.01R
MacArthur/ISP  MOSUNNY   42  17  36 NW16G24   29.99S
Shirley        MOSUNNY   41  18  39 W16G31    30.00R
Westhampton    SUNNY     43  16  33 W15G26    29.99R
Southampton    NOT AVBL
Bridgehampton  NOT AVBL
East Hampton     N/A     41  17  37 NW15G22   29.96R
Montauk          N/A     43  20  39 W14G21    29.96R
$$

NYZ052-065-067-262000-
HUDSON VALLEY

CITY           SKY/WX    TMP DP  RH WIND       PRES   REMARKS
White Plains   MOSUNNY   39  16  39 NW18G25   29.99R WCI  30
Newburgh       PTSUNNY   36  18  48 NW14G25   30.01S WCI  27
Montgomery     CLOUDY    37  17  44 NW15G22   30.01R WCI  28
Poughkeepsie   CLOUDY    38  15  39 NW12G18   30.00R WCI  30
Albany         CLOUDY    35  15  44 NW18G29   30.01R WCI  24
$$

NJZ001-105-106-008-010-013-015-019>022-104-262000-
NEW JERSEY

CITY           SKY/WX    TMP DP  RH WIND       PRES   REMARKS
Newark/Liberty MOSUNNY   44  16  32 W10G26    30.04R
Teterboro      PTSUNNY   43  18  36 W17G24    30.02S
Caldwell       MOSUNNY   41  14  33 NW12G22   30.03S
Somerville     PTSUNNY   42  17  36 W12G18    30.03S
Linden         NOT AVBL
Sussex         PTSUNNY   40  17  39 NW12G17   30.02R WCI  33
Andover          N/A     38  14  37 NW9G18    30.02S WCI  31
Trenton        PTSUNNY   40  18  41 NW16G24   30.07R WCI  31
Millville      SUNNY     42  20  41 W17       30.10S
Atlantic City  SUNNY     44  16  32 W18G25    30.08R
Wrightstown    PTSUNNY   42  18  37 NW14      30.04R
Toms River     MOSUNNY   43  18  36 W16G28    30.07R
Belmar         MOSUNNY   40  19  43 W20G26    30.05R WCI  30
$$

PAZ047>061-062-071-262000-
EASTERN PENNSYLVANIA

CITY           SKY/WX    TMP DP  RH WIND       PRES   REMARKS
Philadelphia   MOSUNNY   43  15  32 W17G29    30.10S
Allentown      CLOUDY    39  18  42 W13G22    30.07S WCI  31
Scranton       CLOUDY    35  15  44 NW14      30.02S WCI  26
$$

CTZ002-004>006-009-010-012-RIZ004-006-007-MAZ004-011-015-262000-
SOUTHERN NEW ENGLAND
 IN CT

CITY           SKY/WX    TMP DP  RH WIND       PRES   REMARKS
Bradley INTL   PTSUNNY   37  15  40 NW18G25   29.96R WCI  27
Hartford       CLOUDY    41  18  39 NW14G24   29.97R
Danbury        PTSUNNY   38  15  39 W16G22    29.99S WCI  29
Wtrbury/Oxford PTSUNNY   39  16  38 NW13G21   29.96S WCI  32
Bridgeport     MOSUNNY   44  17  33 W21       29.98R
Meriden        MOSUNNY   42  15  33 W12G24    29.97R
New Haven      MOSUNNY   41  16  36 NW12G21   29.97R
Chester          N/A     39  14  35 NW13G25   29.94R WCI  32
Groton         SUNNY     44  16  32 NW15G28   29.93R
Wilimantic     MOSUNNY   40  15  36 NW17G28   29.94R WCI  31

 IN RI

CITY           SKY/WX    TMP DP  RH WIND       PRES   REMARKS
Providence     MOSUNNY   42  16  34 NW12G28   29.91R
Block Island   SUNNY     42  19  39 W17G25    29.93
Westerly       SUNNY     43  14  31 NW15G25   29.93R
 IN MA

CITY           SKY/WX    TMP DP  RH WIND       PRES   REMARKS
Boston         MOSUNNY   42  17  36 W22G30    29.86R
Worcester      MOSUNNY   35  13  40 W22G31    29.86R WCI  23
Westfield      PTSUNNY   36  14  40 NW18G28   29.95R WCI  26
Provincetown   SUNNY     43  24  47 W18       29.86R
Nantucket      SUNNY     43  22  43 W23G31    29.89R
$$

ANZ330-335-338-340-345-350-353-355-262000-
COASTAL MARINE OBSERVATIONS


STATION/POSITION TIME  SKY/WX   TEMP    WIND        PRES    VSBY  WAVE
                                AIR SEA DIR/SP/G                  HT/PER
                 (UTC)          (F)     (DEG/KT/KT) (MB)    (MI)  (FT/S)
NY HARB ENTRANCE 1750            38 43  290/ 19/ 23 1016.4          4/11
20 S FIRE ISLAND 1850            38 43  290/ 21/ 25 1016.2          5/ 5
GREAT SOUTH BAY  NOT AVBL
23 SSW MONTAUK P 1750            39 44              1014.7          6/10
15 E BARNEGAT LI NOT AVBL
HUDSON CANYON    1750               48              1016.5          8/ 7
KINGS POINT      1836            38 41              1016.5
EXECUTION ROCKS  NOT AVBL
CENTRAL LI SOUND 1815            39     280/ 16/ 19   N/A           3/ 5
EASTERN LI SOUND NOT AVBL
ROBBINS REEF     1842            39     310/ 16/ 20 1017.0
$$


>>>>>>>>>>>>>>>>>>>>>>>>>>>> KEY <<<<<<<<<<<<<<<<<<<<<<<<<<<
>                                                          <
>     SKY/WX - Sky Condition/Present Weather               <
>     TMP    - Temperature in Fahrenheit                   <
>     DP     - Dew Point in Fahrenheit                     <
>     RH     - Relative Humidity in Percent                <
>     WIND   - Direction (from) and Speed in MPH           <
>     PRES   - Mean Sea Level Pressure (inches of Hg)      <
>     WCI    - Wind Chill Index                            <
>     VSB    - VISIBILITY IN MILES                         <
>     HX     - HEAT INDEX                                  <
>     TC     - TEMPERATURE IN CELSIUS                      <
>     VRB    - VARIABLE WIND DIRECTION                     <
>                                                          <
>>>>>>>>>>>>>>>>>>>>>>>>>>>> KEY <<<<<<<<<<<<<<<<<<<<<<<<<<<




USA.gov is the U.S. government's official web portal to all federal, state and local government web resources and services.